******** Week 349 almanac for PRN-01 ******** ID: 01 Health: 000 Eccentricity: 0.1201629639E-002 Time of Applicability(s): 147456.0000 Orbital Inclination(rad): 0.9582969730 Rate of Right Ascen(r/s): -0.8183198006E-008 SQRT(A) (m 1/2): 5153.585938 Right Ascen at Week(rad): -0.1766796453E+001 Argument of Perigee(rad): -0.068159530 Mean Anom(rad): -0.1977746899E+001 Af0(s): 0.3509521484E-003 Af1(s/s): -0.3637978807E-011 week: 349 ******** Week 349 almanac for PRN-02 ******** ID: 02 Health: 000 Eccentricity: 0.1692295074E-001 Time of Applicability(s): 147456.0000 Orbital Inclination(rad): 0.9638696375 Rate of Right Ascen(r/s): -0.8114623721E-008 SQRT(A) (m 1/2): 5153.572754 Right Ascen at Week(rad): -0.1929794270E+001 Argument of Perigee(rad): -0.876168555 Mean Anom(rad): -0.6166022281E+000 Af0(s): -0.4768371582E-005 Af1(s/s): 0.7275957614E-011 week: 349 ******** Week 349 almanac for PRN-03 ******** ID: 03 Health: 000 Eccentricity: 0.6305217743E-002 Time of Applicability(s): 147456.0000 Orbital Inclination(rad): 0.9924939587 Rate of Right Ascen(r/s): -0.7451738966E-008 SQRT(A) (m 1/2): 5153.629395 Right Ascen at Week(rad): -0.7818343545E+000 Argument of Perigee(rad): 1.219191152 Mean Anom(rad): 0.2015035440E+001 Af0(s): 0.6227493286E-003 Af1(s/s): -0.7275957614E-011 week: 349 ******** Week 349 almanac for PRN-04 ******** ID: 04 Health: 000 Eccentricity: 0.3695964813E-002 Time of Applicability(s): 147456.0000 Orbital Inclination(rad): 0.9700774660 Rate of Right Ascen(r/s): -0.7680319916E-008 SQRT(A) (m 1/2): 5153.706055 Right Ascen at Week(rad): 0.2893325203E+000 Argument of Perigee(rad): -2.940366657 Mean Anom(rad): -0.1152862962E+001 Af0(s): 0.3147125244E-004 Af1(s/s): 0.3637978807E-011 week: 349 ******** Week 349 almanac for PRN-05 ******** ID: 05 Health: 000 Eccentricity: 0.5406856537E-002 Time of Applicability(s): 147456.0000 Orbital Inclination(rad): 0.9790656347 Rate of Right Ascen(r/s): -0.7611745631E-008 SQRT(A) (m 1/2): 5153.621094 Right Ascen at Week(rad): -0.8405686663E+000 Argument of Perigee(rad): 1.433287832 Mean Anom(rad): -0.6025357442E+000 Af0(s): -0.2260208130E-003 Af1(s/s): 0.0000000000E+000 week: 349 ******** Week 349 almanac for PRN-06 ******** ID: 06 Health: 000 Eccentricity: 0.3774642944E-002 Time of Applicability(s): 147456.0000 Orbital Inclination(rad): 0.9872688367 Rate of Right Ascen(r/s): -0.7897471819E-008 SQRT(A) (m 1/2): 5153.653809 Right Ascen at Week(rad): -0.1818467562E+001 Argument of Perigee(rad): -0.671932271 Mean Anom(rad): -0.2830123772E+001 Af0(s): -0.5903244019E-003 Af1(s/s): -0.7275957614E-011 week: 349 ******** Week 349 almanac for PRN-07 ******** ID: 07 Health: 000 Eccentricity: 0.2004384995E-001 Time of Applicability(s): 147456.0000 Orbital Inclination(rad): 0.9503094871 Rate of Right Ascen(r/s): -0.7988904198E-008 SQRT(A) (m 1/2): 5153.588867 Right Ascen at Week(rad): 0.1298557056E+001 Argument of Perigee(rad): -2.011579115 Mean Anom(rad): 0.2494563602E+001 Af0(s): -0.1211166382E-003 Af1(s/s): -0.3637978807E-011 week: 349 ******** Week 349 almanac for PRN-08 ******** ID: 08 Health: 000 Eccentricity: 0.1122188568E-001 Time of Applicability(s): 147456.0000 Orbital Inclination(rad): 0.9450663887 Rate of Right Ascen(r/s): -0.8103194673E-008 SQRT(A) (m 1/2): 5153.604980 Right Ascen at Week(rad): -0.2935788683E+001 Argument of Perigee(rad): 0.485629630 Mean Anom(rad): -0.9228343781E+000 Af0(s): 0.5140304565E-003 Af1(s/s): -0.3637978807E-011 week: 349 ******** Week 349 almanac for PRN-09 ******** ID: 09 Health: 000 Eccentricity: 0.3464221954E-002 Time of Applicability(s): 147456.0000 Orbital Inclination(rad): 0.9642111879 Rate of Right Ascen(r/s): -0.7748894201E-008 SQRT(A) (m 1/2): 5153.541992 Right Ascen at Week(rad): 0.2256652020E+000 Argument of Perigee(rad): 2.062773477 Mean Anom(rad): -0.3716439221E+000 Af0(s): 0.7677078247E-003 Af1(s/s): 0.0000000000E+000 week: 349 ******** Week 349 almanac for PRN-10 ******** ID: 10 Health: 000 Eccentricity: 0.1094007492E-001 Time of Applicability(s): 147456.0000 Orbital Inclination(rad): 0.9920445503 Rate of Right Ascen(r/s): -0.7440309919E-008 SQRT(A) (m 1/2): 5153.611816 Right Ascen at Week(rad): -0.7843439261E+000 Argument of Perigee(rad): -2.282111008 Mean Anom(rad): 0.1069260260E+001 Af0(s): -0.5741119385E-003 Af1(s/s): -0.3637978807E-011 week: 349 ******** Week 349 almanac for PRN-11 ******** ID: 11 Health: 000 Eccentricity: 0.2269268036E-002 Time of Applicability(s): 147456.0000 Orbital Inclination(rad): 0.9641153141 Rate of Right Ascen(r/s): -0.8114623721E-008 SQRT(A) (m 1/2): 5153.711426 Right Ascen at Week(rad): -0.1797970043E+001 Argument of Perigee(rad): -2.263480781 Mean Anom(rad): -0.1876280586E+001 Af0(s): -0.5092620850E-003 Af1(s/s): 0.1455191523E-010 week: 349 ******** Week 349 almanac for PRN-12 ******** ID: 12 Health: 000 Eccentricity: 0.9009838104E-002 Time of Applicability(s): 147456.0000 Orbital Inclination(rad): 0.9594294822 Rate of Right Ascen(r/s): -0.7691748964E-008 SQRT(A) (m 1/2): 5153.539062 Right Ascen at Week(rad): 0.2416315976E+001 Argument of Perigee(rad): 1.526675654 Mean Anom(rad): 0.1861367716E+001 Af0(s): -0.6055831909E-003 Af1(s/s): 0.0000000000E+000 week: 349 ******** Week 349 almanac for PRN-13 ******** ID: 13 Health: 000 Eccentricity: 0.9863376617E-002 Time of Applicability(s): 147456.0000 Orbital Inclination(rad): 0.9757280281 Rate of Right Ascen(r/s): -0.7657461821E-008 SQRT(A) (m 1/2): 5153.620605 Right Ascen at Week(rad): 0.3996484341E+000 Argument of Perigee(rad): 1.006617592 Mean Anom(rad): -0.1213016655E+001 Af0(s): 0.6923675537E-003 Af1(s/s): 0.0000000000E+000 week: 349 ******** Week 349 almanac for PRN-14 ******** ID: 14 Health: 000 Eccentricity: 0.6396770477E-002 Time of Applicability(s): 147456.0000 Orbital Inclination(rad): 0.9427054964 Rate of Right Ascen(r/s): -0.7828897534E-008 SQRT(A) (m 1/2): 5153.593262 Right Ascen at Week(rad): 0.2362929250E+001 Argument of Perigee(rad): -2.765127328 Mean Anom(rad): 0.1675122001E+001 Af0(s): 0.7219314575E-003 Af1(s/s): 0.3637978807E-011 week: 349 ******** Week 349 almanac for PRN-15 ******** ID: 15 Health: 000 Eccentricity: 0.1661491394E-001 Time of Applicability(s): 147456.0000 Orbital Inclination(rad): 0.9420403719 Rate of Right Ascen(r/s): -0.7908900866E-008 SQRT(A) (m 1/2): 5153.607422 Right Ascen at Week(rad): 0.8357461393E-001 Argument of Perigee(rad): 1.489306219 Mean Anom(rad): -0.1941292759E+001 Af0(s): 0.3671646118E-003 Af1(s/s): 0.3637978807E-011 week: 349 ******** Week 349 almanac for PRN-16 ******** ID: 16 Health: 000 Eccentricity: 0.1495742798E-001 Time of Applicability(s): 147456.0000 Orbital Inclination(rad): 0.9586145549 Rate of Right Ascen(r/s): -0.7680319916E-008 SQRT(A) (m 1/2): 5153.565430 Right Ascen at Week(rad): 0.2433414094E+001 Argument of Perigee(rad): 0.913544731 Mean Anom(rad): 0.5661272944E-001 Af0(s): 0.1678466797E-003 Af1(s/s): 0.7275957614E-011 week: 349 ******** Week 349 almanac for PRN-17 ******** ID: 17 Health: 000 Eccentricity: 0.1295900345E-001 Time of Applicability(s): 147456.0000 Orbital Inclination(rad): 0.9607537391 Rate of Right Ascen(r/s): -0.7977475151E-008 SQRT(A) (m 1/2): 5153.500977 Right Ascen at Week(rad): -0.2832318758E+001 Argument of Perigee(rad): -1.149776649 Mean Anom(rad): -0.1058748596E+001 Af0(s): -0.9536743164E-006 Af1(s/s): -0.1091393642E-010 week: 349 ******** Week 349 almanac for PRN-18 ******** ID: 18 Health: 000 Eccentricity: 0.5690574646E-002 Time of Applicability(s): 147456.0000 Orbital Inclination(rad): 0.9722226423 Rate of Right Ascen(r/s): -0.8057478483E-008 SQRT(A) (m 1/2): 5153.604004 Right Ascen at Week(rad): -0.1822420109E+001 Argument of Perigee(rad): -2.856701038 Mean Anom(rad): -0.3033052652E+001 Af0(s): -0.4768371582E-003 Af1(s/s): 0.1091393642E-010 week: 349 ******** Week 349 almanac for PRN-19 ******** ID: 19 Health: 000 Eccentricity: 0.1089286804E-001 Time of Applicability(s): 147456.0000 Orbital Inclination(rad): 0.9599268275 Rate of Right Ascen(r/s): -0.8023191341E-008 SQRT(A) (m 1/2): 5153.650391 Right Ascen at Week(rad): -0.2788387585E+001 Argument of Perigee(rad): 2.904834553 Mean Anom(rad): 0.8350686561E+000 Af0(s): 0.6809234619E-003 Af1(s/s): 0.3637978807E-011 week: 349 ******** Week 349 almanac for PRN-20 ******** ID: 20 Health: 000 Eccentricity: 0.3695964813E-002 Time of Applicability(s): 147456.0000 Orbital Inclination(rad): 0.9607117943 Rate of Right Ascen(r/s): -0.7828897534E-008 SQRT(A) (m 1/2): 5153.597656 Right Ascen at Week(rad): -0.9793074165E+000 Argument of Perigee(rad): -2.083188229 Mean Anom(rad): -0.2802311007E+001 Af0(s): 0.3623962402E-003 Af1(s/s): 0.0000000000E+000 week: 349 ******** Week 349 almanac for PRN-21 ******** ID: 21 Health: 000 Eccentricity: 0.4100799561E-003 Time of Applicability(s): 147456.0000 Orbital Inclination(rad): 0.9619162089 Rate of Right Ascen(r/s): -0.7760323249E-008 SQRT(A) (m 1/2): 5153.678223 Right Ascen at Week(rad): -0.7732832355E+000 Argument of Perigee(rad): -0.541735277 Mean Anom(rad): 0.1800538412E+001 Af0(s): 0.3566741943E-003 Af1(s/s): 0.1091393642E-010 week: 349 ******** Week 349 almanac for PRN-22 ******** ID: 22 Health: 000 Eccentricity: 0.1237583160E-001 Time of Applicability(s): 147456.0000 Orbital Inclination(rad): 0.9580453042 Rate of Right Ascen(r/s): -0.7657461821E-008 SQRT(A) (m 1/2): 5153.588379 Right Ascen at Week(rad): 0.2436741964E+001 Argument of Perigee(rad): -1.003633895 Mean Anom(rad): -0.3984372784E+000 Af0(s): -0.6961822510E-004 Af1(s/s): 0.3637978807E-011 week: 349 ******** Week 349 almanac for PRN-23 ******** ID: 23 Health: 000 Eccentricity: 0.5975246429E-002 Time of Applicability(s): 147456.0000 Orbital Inclination(rad): 0.9870411364 Rate of Right Ascen(r/s): -0.7497455156E-008 SQRT(A) (m 1/2): 5153.654785 Right Ascen at Week(rad): -0.8160627989E+000 Argument of Perigee(rad): -2.765046809 Mean Anom(rad): 0.2180715103E+001 Af0(s): 0.5865097046E-003 Af1(s/s): 0.3637978807E-011 week: 349 ******** Week 349 almanac for PRN-24 ******** ID: 24 Health: 000 Eccentricity: 0.1779031754E-001 Time of Applicability(s): 147456.0000 Orbital Inclination(rad): 0.9343165389 Rate of Right Ascen(r/s): -0.8148910863E-008 SQRT(A) (m 1/2): 5153.589355 Right Ascen at Week(rad): 0.1191394492E+001 Argument of Perigee(rad): 1.123957011 Mean Anom(rad): -0.2807794539E+001 Af0(s): -0.2012252808E-003 Af1(s/s): 0.1455191523E-010 week: 349 ******** Week 349 almanac for PRN-25 ******** ID: 25 Health: 000 Eccentricity: 0.1284170151E-001 Time of Applicability(s): 147456.0000 Orbital Inclination(rad): 0.9476429970 Rate of Right Ascen(r/s): -0.7806039439E-008 SQRT(A) (m 1/2): 5153.708496 Right Ascen at Week(rad): 0.2323377188E+001 Argument of Perigee(rad): 1.142925418 Mean Anom(rad): 0.1751549522E+001 Af0(s): 0.4558563232E-003 Af1(s/s): -0.3637978807E-011 week: 349 ******** Week 349 almanac for PRN-26 ******** ID: 26 Health: 000 Eccentricity: 0.1087951660E-001 Time of Applicability(s): 147456.0000 Orbital Inclination(rad): 0.9283424028 Rate of Right Ascen(r/s): -0.7966046104E-008 SQRT(A) (m 1/2): 5153.623535 Right Ascen at Week(rad): 0.2250316485E+001 Argument of Perigee(rad): 0.689210527 Mean Anom(rad): 0.9093142999E+000 Af0(s): -0.2946853638E-003 Af1(s/s): -0.7275957614E-011 week: 349 ******** Week 349 almanac for PRN-27 ******** ID: 27 Health: 063 Eccentricity: 0.1396656036E-001 Time of Applicability(s): 147456.0000 Orbital Inclination(rad): 0.9541564232 Rate of Right Ascen(r/s): -0.8034620388E-008 SQRT(A) (m 1/2): 5153.610840 Right Ascen at Week(rad): -0.2904440947E+001 Argument of Perigee(rad): 0.858900411 Mean Anom(rad): -0.8398747047E+000 Af0(s): 0.0000000000E+000 Af1(s/s): 0.0000000000E+000 week: 349 ******** Week 349 almanac for PRN-28 ******** ID: 28 Health: 000 Eccentricity: 0.4272460938E-003 Time of Applicability(s): 147456.0000 Orbital Inclination(rad): 0.9612870371 Rate of Right Ascen(r/s): -0.7886042771E-008 SQRT(A) (m 1/2): 5153.681641 Right Ascen at Week(rad): 0.1271926610E+001 Argument of Perigee(rad): 0.522422699 Mean Anom(rad): 0.2361719967E+001 Af0(s): -0.6227493286E-003 Af1(s/s): 0.3637978807E-011 week: 349 ******** Week 349 almanac for PRN-29 ******** ID: 29 Health: 000 Eccentricity: 0.3298282623E-002 Time of Applicability(s): 147456.0000 Orbital Inclination(rad): 0.9633782843 Rate of Right Ascen(r/s): -0.7977475151E-008 SQRT(A) (m 1/2): 5153.507812 Right Ascen at Week(rad): -0.2815824344E+001 Argument of Perigee(rad): 2.766017157 Mean Anom(rad): -0.9609827876E+000 Af0(s): -0.4091262817E-003 Af1(s/s): 0.7275957614E-011 week: 349 ******** Week 349 almanac for PRN-30 ******** ID: 30 Health: 000 Eccentricity: 0.7758617401E-002 Time of Applicability(s): 147456.0000 Orbital Inclination(rad): 0.9355569062 Rate of Right Ascen(r/s): -0.8160339911E-008 SQRT(A) (m 1/2): 5153.507812 Right Ascen at Week(rad): 0.1290686042E+001 Argument of Perigee(rad): -2.348746294 Mean Anom(rad): 0.2413328159E+001 Af0(s): 0.5626678467E-004 Af1(s/s): 0.1091393642E-010 week: 349 ******** Week 349 almanac for PRN-31 ******** ID: 31 Health: 000 Eccentricity: 0.1091814041E-001 Time of Applicability(s): 147456.0000 Orbital Inclination(rad): 0.9540965021 Rate of Right Ascen(r/s): -0.7931758961E-008 SQRT(A) (m 1/2): 5153.690430 Right Ascen at Week(rad): 0.1322458844E+001 Argument of Perigee(rad): 0.921618354 Mean Anom(rad): 0.1457933765E+001 Af0(s): -0.1773834229E-003 Af1(s/s): 0.3637978807E-011 week: 349 ******** Week 349 almanac for PRN-32 ******** ID: 32 Health: 000 Eccentricity: 0.9016990662E-002 Time of Applicability(s): 147456.0000 Orbital Inclination(rad): 0.9672911337 Rate of Right Ascen(r/s): -0.7726036106E-008 SQRT(A) (m 1/2): 5153.646484 Right Ascen at Week(rad): 0.2423921839E+000 Argument of Perigee(rad): -2.043963112 Mean Anom(rad): -0.2088730559E+000 Af0(s): -0.2059936523E-003 Af1(s/s): 0.1455191523E-010 week: 349